Location: Escondido Hill
(38.9119°N, 104.7815°W)
Time: 20:04:58
(UTC-06:00)

OTV 5 (USA 277) - Visible Passes

Search period start: 18 August 2018 00:00
Search period end: 28 August 2018 00:00
Orbit: 316 x 318 km, 54.5° (Epoch: 18 August)

Date Brightness Start Highest point End Pass type
(mag) Time Alt. Az. Time Alt. Az. Time Alt. Az.
18 Aug ? 04:19:48 15° ESE 04:19:48 15° ESE 04:20:24 10° ESE visible
18 Aug ? 20:34:03 10° SSW 20:36:40 48° SE 20:39:17 10° ENE visible
18 Aug ? 22:09:45 10° WNW 22:11:12 13° NNW 22:12:17 11° N visible
19 Aug ? 20:48:36 10° WSW 20:51:13 46° NW 20:53:51 10° NE visible
20 Aug ? 21:03:53 10° W 21:05:55 19° NNW 21:07:58 10° NNE visible
23 Aug ? 20:14:02 10° WNW 20:15:29 13° NNW 20:16:56 10° N visible
